一网星座-0063星 (ONEWEB-0063 )

导读

ONEWEB-0063是英国OneWeb公司低轨卫星互联网星座中的一颗卫星,于2020年3月21日搭载联盟号火箭自哈萨克斯坦拜科努尔发射场成功发射,属于该公司星座组网的第三批发射卫星之一。该卫星单颗重约147.5kg,最终运行在1200公里高度的近地轨道,属于OneWeb一期星座组网卫星,旨在为全球提供高速低延时的卫星互联网接入服务,助力填补偏远地区通信基础设施缺口。

基本信息
目录编号:
45448
目录名称:
ONEWEB-0063
国际标识:
2020-020AA
轨道中心:
EARTH
卫星名称:
一网星座-0063星
卫星全名:
一网星座-0063星 (ONEWEB-0063 )
卫星状态:
在轨 (已飞行2365 天)
发射日期:
2020-03-21 UTC
国别 :
英国 (GB)
星等 :
--
该卫星已列入 空间交会检测服务 Space Conjunction Data Service (SCDS) ,当前飞行风险评估等级: 无高风险
轨道信息
数据来源 国际轨道数据 AOE轨道数据
星历时间 2026-09-11T00:51:49+0800
18小时前
查看轨道信息
2026-09-06T06:00:00+0800
5天前
查看轨道信息
半长轴 7595.83km 7595.803km
偏心率 0.0001681 0.000152
轨道倾角 87.897° 87.897°
近地点辐角 110.863° 107.384°
升交点赤经 4.071° 5.019°
平近点角 249.268° 350.542°
近地点 1216.416km 1216.511km
远地点 1218.97km 1218.821km
周期 109.805分钟 109.805分钟
每日圈数 13.114145 13.114213
详细信息
平衡模式:
三轴稳定
覆盖范围:
全球
运营商:
一网卫星公司
运营商所在国:
英国
制造商(研发单位):
一网卫星公司
制造商所在国:
英国
使用方式:
暂无
卫星简介
OneWeb卫星网络由648颗重约125公斤的微型卫星组成,运行在1200公里的轨道上。 每颗卫星都能够提供至少每秒8千兆位的吞吐量,以使用其高吞吐量的Ku频段有效载荷为家庭和移动平台提供互联网接入。该卫星仍在工作。
2D轨道图
3D轨道图
轨道高度分析图
轨道倾角分析图
轨道综合分析图
查看轨道综合分析图
与全量物体交会距离演化趋势
与全量物体交会风险概率演化趋势